Weather in Terceira Island

Portugal     38°43′25″N   27°12′41″W
temp.,
°C
wind,
m/s
gust,
m/s
humid.,
%
clouds,
%
prec.,
mm/h
press.,
hPa
HPBL,
m
20 april, tue
tue2000:00+15ssw4888100 0.1 1021541
03:00+15ssw61292100 0.1 1018676
06:00+16ssw8159497 0.2 1016787
09:00+17sw7129697 2.8 1016735
12:00+17w6108789 3.8 1016622
15:00+18w71273100 0.1 1016986
18:00+17w61076100 0.1 1016712
21:00+15w5988100 0.0 1017535
21 april, wed
wed2100:00+15wsw4889100 0.0 1017482
03:00+14wsw4792100 0.1 1016372
06:00+14wsw359191 0.1 1015262
09:00+15ssw3491100 0.0 1015232
12:00+15sw5988100 0.1 1013736
15:00+15ssw71593100 2.6 1010851
18:00+16sw81695100 3.5 1007857
21:00+17sw111695100 0.6 1005678
22 april, thu
thu2200:00+17sw111895100 1.5 1003902
03:00+16sw131788100 5.3 1000843
06:00+14sw11178461 5.6 9981226
09:00+14w13208980 0.9 9961443
12:00+14wnw132189100 3.8 10001490
15:00+13wnw12198232 0.8 10041443
18:00+13wnw12208244 1.3 10051644
21:00+11wnw11197939 0.8 10071707
23 april, fri
fri2300:00+11wnw10207764 1.9 10081782
03:00+12wnw11177696 0.8 10061604
06:00+12nw13198047 1.3 10071490
09:00+12nw12198026 0.6 10081530
12:00+13nw13197822 0.9 10101471
15:00+13nw13187726 0.5 10101516
18:00+13nw12188058 1.1 10111481
21:00+12nw12187827 0.3 10121504
24 april, sat
sat2400:00+12nw12177663 0.4 10121393
03:00+12nw12177490 0.1 10121491
06:00+12nw12178090 0.3 10111424
09:00+13nw12167889 0.1 10121307
12:00+14nw111678100 0.3 10121344
15:00+14nw11157949 0.3 10111266
18:00+14nw11158495 0.7 10121346
21:00+13nw10148894 0.4 10131152